LGL732 GCFV-ELLX

Flight info

Callsign LGL732
Flight time N/A
Altitude 36000
Route VASTO UN858 AKUDA DCT GIMAL DCT PESAS N858 EDIGO/N0440F380 N858 DGO L176 CEGAM L176 LUSEM/N0442F380 DCT LULUT DCT ADABI/N0431F340 DCT BOKNO DCT DIBES DCT VIQAQ DCT TSU UM163 LEQOS DCT CTL DCT MMD
Aircraft B738/M-SDE2E3FGHIRWXY/LB1

Departure

Time N/A
Airport Fuerteventura Airport (GCFV)

Arrival

Time 2026-04-30 20:34
Airport Luxembourg-Findel International Airport (ELLX)
Time Latitude Longitude Altitude Speed Heading
2026-04-30 17:39 33.68292 -10.97252 36120 ft 457 kts 27°
2026-04-30 17:42 33.93310 -10.75703 36121 ft 459 kts 28°
2026-04-30 17:43 34.06293 -10.64458 36124 ft 460 kts 28°
2026-04-30 17:44 34.21904 -10.50877 36114 ft 461 kts 28°
2026-04-30 17:47 34.45274 -10.30428 36116 ft 460 kts 29°
2026-04-30 17:48 34.63341 -10.14521 36121 ft 459 kts 29°
2026-04-30 17:50 34.83962 -9.96370 36139 ft 456 kts 29°
2026-04-30 17:52 34.99373 -9.82725 36116 ft 456 kts 29°
2026-04-30 17:54 35.22378 -9.62232 36113 ft 455 kts 30°
2026-04-30 17:56 35.42754 -9.43959 36124 ft 454 kts 30°
2026-04-30 17:58 35.58003 -9.30205 36109 ft 453 kts 30°
2026-04-30 18:00 35.78248 -9.11845 36109 ft 452 kts 30°
2026-04-30 18:01 35.90907 -9.00300 36112 ft 452 kts 30°
2026-04-30 18:02 35.98460 -8.93166 36104 ft 468 kts 38°
2026-04-30 18:02 36.05164 -8.84097 36114 ft 483 kts 47°
2026-04-30 18:04 36.18210 -8.64969 36091 ft 485 kts 47°
2026-04-30 18:06 36.35624 -8.39561 36089 ft 482 kts 47°
2026-04-30 18:08 36.50717 -8.17375 36087 ft 480 kts 46°
2026-04-30 18:10 36.67943 -7.91874 36064 ft 483 kts 47°
2026-04-30 18:11 36.83085 -7.69294 36033 ft 487 kts 47°
2026-04-30 18:13 36.93928 -7.53031 36050 ft 488 kts 47°
2026-04-30 18:14 37.04773 -7.36690 36056 ft 489 kts 46°
2026-04-30 18:15 37.17860 -7.17172 36038 ft 489 kts 47°
2026-04-30 18:16 37.26630 -7.04065 36032 ft 489 kts 47°
2026-04-30 18:17 37.30974 -6.97553 36035 ft 490 kts 46°
2026-04-30 18:18 37.37470 -6.87788 36028 ft 490 kts 46°
2026-04-30 18:18 37.41847 -6.81189 36007 ft 487 kts 47°
2026-04-30 18:19 37.46202 -6.74615 36018 ft 491 kts 47°
2026-04-30 18:19 37.50591 -6.67976 36021 ft 495 kts 47°
2026-04-30 18:20 37.55003 -6.61286 36021 ft 498 kts 47°
2026-04-30 18:20 37.59432 -6.54555 36020 ft 499 kts 47°
2026-04-30 18:21 37.63853 -6.47823 36001 ft 498 kts 47°
2026-04-30 18:21 37.68256 -6.41105 35998 ft 495 kts 47°
2026-04-30 18:22 37.72629 -6.34419 36002 ft 492 kts 48°
2026-04-30 18:22 37.79138 -6.24442 36037 ft 489 kts 48°
2026-04-30 18:23 37.83455 -6.17809 36011 ft 488 kts 48°
2026-04-30 18:23 37.87761 -6.11180 36000 ft 487 kts 48°
2026-04-30 18:24 37.94269 -6.01306 35992 ft 486 kts 42°
2026-04-30 18:25 37.99519 -5.96159 36006 ft 479 kts 28°
2026-04-30 18:25 38.08045 -5.89494 35995 ft 483 kts 27°
2026-04-30 18:26 38.16625 -5.82659 35992 ft 487 kts 28°
2026-04-30 18:27 38.25223 -5.75717 35993 ft 490 kts 28°
2026-04-30 18:28 38.33869 -5.68719 35970 ft 492 kts 28°
2026-04-30 18:28 38.42520 -5.61700 35980 ft 491 kts 28°
2026-04-30 18:29 38.54034 -5.52328 35904 ft 490 kts 29°
2026-04-30 18:30 38.64550 -5.43772 35882 ft 489 kts 28°
2026-04-30 18:31 38.73170 -5.36820 35884 ft 488 kts 28°
2026-04-30 18:32 38.81763 -5.29858 35880 ft 487 kts 29°
2026-04-30 18:33 38.90351 -5.22874 35880 ft 487 kts 29°
2026-04-30 18:33 38.98895 -5.15906 35883 ft 487 kts 29°
2026-04-30 18:34 39.07474 -5.08845 35893 ft 489 kts 30°
2026-04-30 18:35 39.13202 -5.04095 35888 ft 490 kts 30°
2026-04-30 18:35 39.18932 -4.99336 35882 ft 491 kts 30°
2026-04-30 18:36 39.27550 -4.92169 35889 ft 492 kts 30°
2026-04-30 18:37 39.36186 -4.84966 35885 ft 493 kts 30°
2026-04-30 18:37 39.42023 -4.80321 35885 ft 492 kts 26°
2026-04-30 18:38 39.48029 -4.76095 35888 ft 491 kts 25°
2026-04-30 18:38 39.54065 -4.71906 35882 ft 493 kts 25°
2026-04-30 18:39 39.60089 -4.67643 35885 ft 494 kts 26°
2026-04-30 18:39 39.66103 -4.63331 35878 ft 494 kts 26°
2026-04-30 18:40 39.72113 -4.58999 35899 ft 494 kts 26°
2026-04-30 18:40 39.78126 -4.54659 35870 ft 493 kts 26°
2026-04-30 18:41 39.84123 -4.50324 35869 ft 493 kts 26°
2026-04-30 18:41 39.90115 -4.45986 35874 ft 493 kts 27°
2026-04-30 18:42 39.96102 -4.41643 35890 ft 493 kts 27°
2026-04-30 18:42 40.05083 -4.35112 35869 ft 492 kts 27°
2026-04-30 18:45 40.37888 -4.11082 35868 ft 491 kts 27°
2026-04-30 18:46 40.43849 -4.06687 35887 ft 492 kts 28°
2026-04-30 18:46 40.49812 -4.02281 35945 ft 492 kts 28°
2026-04-30 18:47 40.55772 -3.97868 36000 ft 492 kts 28°
2026-04-30 18:47 40.61731 -3.93447 36054 ft 492 kts 28°
2026-04-30 18:48 40.67692 -3.89015 36090 ft 492 kts 28°
2026-04-30 18:48 40.73653 -3.84574 36100 ft 492 kts 28°
2026-04-30 18:49 40.79607 -3.80130 35648 ft 487 kts 30°
2026-04-30 18:49 40.82494 -3.77971 35738 ft 468 kts 30°
2026-04-30 18:49 40.85284 -3.75883 35781 ft 454 kts 30°
2026-04-30 18:50 40.90763 -3.71776 35878 ft 455 kts 30°
2026-04-30 18:50 40.96329 -3.67595 35885 ft 465 kts 30°
2026-04-30 18:51 41.01962 -3.63356 35877 ft 466 kts 30°
2026-04-30 18:51 41.07601 -3.59105 35869 ft 466 kts 30°
2026-04-30 18:52 41.13238 -3.54846 35866 ft 466 kts 30°
2026-04-30 18:52 41.18866 -3.50586 35868 ft 465 kts 30°
2026-04-30 18:53 41.24478 -3.46329 35858 ft 464 kts 30°
2026-04-30 18:53 41.30073 -3.42077 35853 ft 462 kts 29°
2026-04-30 18:54 41.35647 -3.37832 35864 ft 461 kts 29°
2026-04-30 18:54 41.41207 -3.33590 35861 ft 460 kts 29°
2026-04-30 18:55 41.46750 -3.29351 35858 ft 459 kts 30°
2026-04-30 18:55 41.55056 -3.22985 35870 ft 459 kts 29°
2026-04-30 18:56 41.63366 -3.16597 35859 ft 459 kts 29°
2026-04-30 18:57 41.71643 -3.10214 35864 ft 460 kts 30°
2026-04-30 18:57 41.77192 -3.05925 35874 ft 461 kts 29°
2026-04-30 18:58 41.85523 -2.99468 35872 ft 461 kts 29°
2026-04-30 18:59 41.93856 -2.92991 35879 ft 462 kts 29°
2026-04-30 19:00 42.04972 -2.84320 35879 ft 462 kts 29°
2026-04-30 19:01 42.16066 -2.75629 35874 ft 461 kts 29°
2026-04-30 19:02 42.24370 -2.69101 35893 ft 460 kts 29°
2026-04-30 19:03 42.35418 -2.60384 35977 ft 460 kts 28°
2026-04-30 19:04 42.46451 -2.51645 36040 ft 459 kts 28°
2026-04-30 19:05 42.57443 -2.42901 36033 ft 459 kts 28°
2026-04-30 19:06 42.68465 -2.34097 35980 ft 460 kts 28°
2026-04-30 19:06 42.76737 -2.27465 35931 ft 460 kts 28°
2026-04-30 19:07 42.85006 -2.20815 35905 ft 460 kts 28°
2026-04-30 19:08 42.96028 -2.11918 35916 ft 460 kts 28°
2026-04-30 19:09 43.04298 -2.05219 36143 ft 461 kts 28°
2026-04-30 19:09 43.09810 -2.00741 36146 ft 460 kts 28°
2026-04-30 19:10 43.20808 -1.91778 36141 ft 459 kts 28°
2026-04-30 19:11 43.29030 -1.85053 36138 ft 459 kts 27°
2026-04-30 19:12 43.34511 -1.80559 36128 ft 459 kts 27°
2026-04-30 19:12 43.39937 -1.76033 36129 ft 460 kts 29°
2026-04-30 19:13 43.50613 -1.66311 36130 ft 460 kts 30°
2026-04-30 19:14 43.55937 -1.61454 36131 ft 459 kts 30°
2026-04-30 19:14 43.61272 -1.56606 36144 ft 459 kts 30°
2026-04-30 19:15 43.66597 -1.51764 36143 ft 458 kts 30°
2026-04-30 19:15 43.74574 -1.44490 36138 ft 457 kts 30°
2026-04-30 19:16 43.79878 -1.39640 36138 ft 457 kts 30°
2026-04-30 19:17 43.87829 -1.32349 36143 ft 457 kts 29°
2026-04-30 19:17 43.95771 -1.25043 36138 ft 457 kts 30°
2026-04-30 19:18 44.02809 -1.18548 36157 ft 456 kts 30°
2026-04-30 19:19 44.08093 -1.13659 36143 ft 456 kts 29°
2026-04-30 19:19 44.16009 -1.06315 36139 ft 456 kts 29°
2026-04-30 19:20 44.21279 -1.01412 36138 ft 455 kts 29°
2026-04-30 19:21 44.29179 -0.94043 36134 ft 455 kts 30°
2026-04-30 19:22 44.39691 -0.84236 36139 ft 453 kts 27°
2026-04-30 19:23 44.56761 -0.73691 36138 ft 446 kts 19°
2026-04-30 19:24 44.65306 -0.68486 36147 ft 446 kts 20°
2026-04-30 19:25 44.79534 -0.59722 36130 ft 447 kts 20°
2026-04-30 19:26 44.90919 -0.52679 36128 ft 447 kts 20°
2026-04-30 19:27 44.99424 -0.47397 36145 ft 447 kts 20°
2026-04-30 19:28 45.07976 -0.42070 36145 ft 448 kts 21°
2026-04-30 19:29 45.19398 -0.34926 36160 ft 449 kts 21°
2026-04-30 19:30 45.30814 -0.27756 36146 ft 448 kts 22°
2026-04-30 19:31 45.42177 -0.20586 36165 ft 445 kts 22°
2026-04-30 19:31 45.50658 -0.15214 36149 ft 443 kts 22°
2026-04-30 19:32 45.56264 -0.11654 36151 ft 441 kts 22°
2026-04-30 19:32 45.61852 -0.08097 36157 ft 439 kts 22°
2026-04-30 19:33 45.67424 -0.04542 36149 ft 437 kts 22°
2026-04-30 19:33 45.72970 -0.00997 36155 ft 436 kts 22°
2026-04-30 19:34 45.78509 0.02551 36159 ft 439 kts 23°
2026-04-30 19:35 45.86979 0.07992 36157 ft 447 kts 24°
2026-04-30 19:35 45.92660 0.11652 36156 ft 448 kts 24°
2026-04-30 19:36 45.98347 0.15325 36157 ft 448 kts 24°
2026-04-30 19:36 46.06688 0.20726 36148 ft 436 kts 24°
2026-04-30 19:37 46.12232 0.24326 36155 ft 437 kts 24°
2026-04-30 19:37 46.17784 0.27939 36149 ft 439 kts 24°
2026-04-30 19:38 46.23348 0.31568 36151 ft 439 kts 24°
2026-04-30 19:38 46.28915 0.35207 36141 ft 439 kts 24°
2026-04-30 19:39 46.34481 0.38854 36143 ft 439 kts 24°
2026-04-30 19:39 46.40034 0.42501 36135 ft 438 kts 25°
2026-04-30 19:40 46.45585 0.46154 36155 ft 438 kts 25°
2026-04-30 19:40 46.51132 0.49814 36156 ft 438 kts 25°
2026-04-30 19:41 46.56719 0.53347 36147 ft 439 kts 18°
2026-04-30 19:41 46.62658 0.55409 36151 ft 439 kts 13°
2026-04-30 19:42 46.68639 0.57271 36154 ft 440 kts 13°
2026-04-30 19:42 46.74630 0.59201 36149 ft 441 kts 13°
2026-04-30 19:43 46.80628 0.61181 36147 ft 442 kts 13°
2026-04-30 19:44 46.89647 0.64179 36141 ft 444 kts 13°
2026-04-30 19:44 46.95667 0.66184 36143 ft 444 kts 13°
2026-04-30 19:45 47.01699 0.68196 36136 ft 445 kts 14°
2026-04-30 19:45 47.07436 0.71421 36142 ft 442 kts 32°
2026-04-30 19:46 47.12681 0.76142 36143 ft 442 kts 33°
2026-04-30 19:46 47.17909 0.80908 36131 ft 443 kts 33°
2026-04-30 19:47 47.23162 0.85637 36127 ft 443 kts 32°
2026-04-30 19:47 47.28424 0.90347 36134 ft 443 kts 32°
2026-04-30 19:48 47.33686 0.95065 36147 ft 443 kts 32°
2026-04-30 19:48 47.38946 0.99795 36142 ft 443 kts 32°
2026-04-30 19:49 47.44196 1.04528 36141 ft 442 kts 33°
2026-04-30 19:49 47.52087 1.11598 36142 ft 442 kts 31°
2026-04-30 19:50 47.57513 1.15883 36147 ft 442 kts 28°
2026-04-30 19:50 47.62971 1.20057 36138 ft 441 kts 29°
2026-04-30 19:51 47.68412 1.24277 36142 ft 440 kts 29°
2026-04-30 19:51 47.73821 1.28521 36131 ft 439 kts 29°
2026-04-30 19:52 47.79212 1.32772 36145 ft 438 kts 29°
2026-04-30 19:52 47.84592 1.37025 36135 ft 438 kts 29°
2026-04-30 19:53 47.89971 1.41285 36131 ft 437 kts 29°
2026-04-30 19:53 47.95340 1.45547 36131 ft 437 kts 29°
2026-04-30 19:54 48.00705 1.49815 36126 ft 437 kts 29°
2026-04-30 19:54 48.06039 1.54071 36133 ft 438 kts 29°
2026-04-30 19:55 48.11415 1.58368 36135 ft 438 kts 29°
2026-04-30 19:55 48.16797 1.62676 36127 ft 439 kts 29°
2026-04-30 19:56 48.22188 1.66993 36130 ft 440 kts 30°
2026-04-30 19:56 48.27589 1.71329 36131 ft 441 kts 30°
2026-04-30 19:57 48.32993 1.75679 36148 ft 441 kts 30°
2026-04-30 19:57 48.38402 1.80046 36137 ft 441 kts 30°
2026-04-30 19:58 48.43817 1.84426 36140 ft 442 kts 30°
2026-04-30 19:58 48.49225 1.88813 36157 ft 442 kts 30°
2026-04-30 19:59 48.54632 1.93210 36164 ft 441 kts 30°
2026-04-30 20:00 48.62735 1.99819 36160 ft 441 kts 30°
2026-04-30 20:00 48.68130 2.04232 36157 ft 440 kts 31°
2026-04-30 20:01 48.75492 2.12196 36170 ft 432 kts 55°
2026-04-30 20:01 48.77059 2.15986 36160 ft 428 kts 68°
2026-04-30 20:01 48.78201 2.20197 36164 ft 426 kts 71°
2026-04-30 20:02 48.81443 2.32761 36157 ft 427 kts 70°
2026-04-30 20:03 48.84741 2.45262 36184 ft 427 kts 70°
2026-04-30 20:03 48.86597 2.52279 36186 ft 428 kts 70°
2026-04-30 20:04 48.88808 2.60670 36183 ft 428 kts 70°
2026-04-30 20:05 48.92114 2.73282 35771 ft 425 kts 70°
2026-04-30 20:05 48.93198 2.77431 35525 ft 419 kts 71°
2026-04-30 20:05 48.95318 2.85565 35033 ft 410 kts 71°
2026-04-30 20:06 48.96364 2.89592 34789 ft 407 kts 71°
2026-04-30 20:06 48.97400 2.93585 34552 ft 405 kts 71°
2026-04-30 20:06 48.98428 2.97558 34309 ft 402 kts 71°
2026-04-30 20:06 48.99449 3.01513 34058 ft 400 kts 72°
2026-04-30 20:07 49.00452 3.05400 33790 ft 399 kts 72°
2026-04-30 20:07 49.01463 3.09329 33509 ft 397 kts 71°
2026-04-30 20:07 49.03480 3.17185 32985 ft 394 kts 71°
2026-04-30 20:08 49.04464 3.21026 32719 ft 393 kts 71°
2026-04-30 20:08 49.05454 3.24897 32455 ft 392 kts 71°
2026-04-30 20:08 49.06442 3.28768 32199 ft 391 kts 71°
2026-04-30 20:08 49.07426 3.32628 31943 ft 390 kts 71°
2026-04-30 20:09 49.08406 3.36478 31691 ft 389 kts 71°
2026-04-30 20:09 49.09382 3.40323 31440 ft 388 kts 71°
2026-04-30 20:09 49.11324 3.47984 30942 ft 386 kts 71°
2026-04-30 20:10 49.13248 3.55601 30450 ft 384 kts 71°
2026-04-30 20:10 49.14135 3.59433 30204 ft 381 kts 76°
2026-04-30 20:10 49.14839 3.63320 29920 ft 379 kts 77°
2026-04-30 20:11 49.16127 3.71090 29360 ft 375 kts 78°
2026-04-30 20:11 49.16760 3.74952 29085 ft 374 kts 78°
2026-04-30 20:11 49.17391 3.78773 28778 ft 369 kts 78°
2026-04-30 20:12 49.18645 3.86296 28051 ft 362 kts 78°
2026-04-30 20:12 49.19266 3.90001 27683 ft 359 kts 78°
2026-04-30 20:12 49.19882 3.93680 27313 ft 356 kts 78°
2026-04-30 20:13 49.20492 3.97330 26952 ft 353 kts 78°
2026-04-30 20:13 49.21099 4.00960 26589 ft 350 kts 78°
2026-04-30 20:13 49.21698 4.04554 26235 ft 348 kts 78°
2026-04-30 20:13 49.22293 4.08128 25863 ft 346 kts 78°
2026-04-30 20:14 49.22875 4.11636 25517 ft 344 kts 78°
2026-04-30 20:14 49.23461 4.15167 25161 ft 342 kts 78°
2026-04-30 20:14 49.24042 4.18682 24813 ft 340 kts 78°
2026-04-30 20:14 49.24618 4.22173 24468 ft 338 kts 78°
2026-04-30 20:15 49.25190 4.25647 24126 ft 336 kts 78°
2026-04-30 20:15 49.25760 4.29112 23766 ft 335 kts 78°
2026-04-30 20:15 49.26324 4.32555 23365 ft 333 kts 78°
2026-04-30 20:15 49.26885 4.35981 22984 ft 331 kts 78°
2026-04-30 20:16 49.27442 4.39386 22626 ft 328 kts 78°
2026-04-30 20:16 49.27993 4.42765 22275 ft 326 kts 78°
2026-04-30 20:16 49.28539 4.46122 21932 ft 323 kts 78°
2026-04-30 20:16 49.29079 4.49451 21587 ft 321 kts 78°
2026-04-30 20:17 49.29616 4.52761 21254 ft 319 kts 78°
2026-04-30 20:17 49.30148 4.56049 20915 ft 317 kts 78°
2026-04-30 20:17 49.30676 4.59322 20580 ft 316 kts 78°
2026-04-30 20:17 49.31200 4.62575 20256 ft 314 kts 78°
2026-04-30 20:18 49.31721 4.65818 19926 ft 313 kts 78°
2026-04-30 20:18 49.32241 4.69058 19596 ft 312 kts 78°
2026-04-30 20:18 49.32758 4.72286 19263 ft 311 kts 78°
2026-04-30 20:18 49.33272 4.75501 18932 ft 311 kts 78°
2026-04-30 20:19 49.33785 4.78718 18585 ft 311 kts 78°
2026-04-30 20:19 49.34297 4.81933 18235 ft 310 kts 78°
2026-04-30 20:19 49.34807 4.85143 17870 ft 309 kts 78°
2026-04-30 20:19 49.35314 4.88338 17527 ft 308 kts 78°
2026-04-30 20:20 49.35835 4.91518 17144 ft 308 kts 77°
2026-04-30 20:20 49.36385 4.94702 16751 ft 309 kts 77°
2026-04-30 20:20 49.36939 4.97872 16410 ft 307 kts 77°
2026-04-30 20:20 49.37489 5.01026 16090 ft 306 kts 77°
2026-04-30 20:21 49.38036 5.04171 15762 ft 304 kts 77°
2026-04-30 20:21 49.38578 5.07304 15434 ft 303 kts 77°
2026-04-30 20:21 49.39115 5.10418 15115 ft 302 kts 77°
2026-04-30 20:21 49.39649 5.13529 14805 ft 300 kts 77°
2026-04-30 20:22 49.40179 5.16620 14495 ft 299 kts 77°
2026-04-30 20:22 49.40707 5.19708 14194 ft 298 kts 77°
2026-04-30 20:22 49.41230 5.22775 13906 ft 296 kts 77°
2026-04-30 20:22 49.41748 5.25821 13579 ft 294 kts 77°
2026-04-30 20:23 49.42264 5.28858 13244 ft 293 kts 77°
2026-04-30 20:23 49.42776 5.31876 12921 ft 291 kts 77°
2026-04-30 20:23 49.43284 5.34874 12597 ft 290 kts 77°
2026-04-30 20:23 49.43782 5.37821 12237 ft 282 kts 77°
2026-04-30 20:24 49.44278 5.40764 11598 ft 286 kts 77°
2026-04-30 20:24 49.44769 5.43682 11070 ft 286 kts 77°
2026-04-30 20:24 49.45264 5.46625 10597 ft 283 kts 77°
2026-04-30 20:24 49.45753 5.49540 10150 ft 280 kts 77°
2026-04-30 20:25 49.46721 5.55321 9132 ft 278 kts 77°
2026-04-30 20:25 49.47200 5.58186 8717 ft 275 kts 77°
2026-04-30 20:26 49.48144 5.63855 7867 ft 272 kts 78°
2026-04-30 20:26 49.49075 5.69465 7043 ft 269 kts 78°
2026-04-30 20:26 49.49534 5.72239 6643 ft 267 kts 78°
2026-04-30 20:27 49.50440 5.77716 5910 ft 260 kts 78°
2026-04-30 20:27 49.51311 5.83004 5229 ft 250 kts 79°
2026-04-30 20:28 49.52141 5.88053 4641 ft 239 kts 80°
2026-04-30 20:28 49.52939 5.92927 4174 ft 227 kts 80°
2026-04-30 20:29 49.53778 5.97357 3685 ft 209 kts 68°
2026-04-30 20:30 49.55828 6.02692 3000 ft 167 kts 68°
2026-04-30 20:30 49.57284 6.06643 3008 ft 122 kts 69°
2026-04-30 20:31 49.58484 6.09909 2567 ft 120 kts 71°
2026-04-30 20:32 49.59740 6.13311 2040 ft 121 kts 67°
2026-04-30 20:32 49.60623 6.15700 1688 ft 131 kts 62°
2026-04-30 20:33 49.61077 6.16927 1479 ft 131 kts 60°
2026-04-30 20:33 49.61963 6.19318 1189 ft 124 kts 60°
2026-04-30 20:33 49.62342 6.20330 1226 ft 93 kts 60°
2026-04-30 20:34 49.62807 6.21588 1220 ft 57 kts 60°
2026-04-30 20:34 49.63070 6.22113 1216 ft 17 kts 335°
2026-04-30 20:35 49.63142 6.22053 1223 ft 8 kts 330°
2026-04-30 20:35 49.63174 6.21994 1227 ft 7 kts 289°
2026-04-30 20:35 49.63140 6.21847 1225 ft 8 kts 244°
2026-04-30 20:36 49.63115 6.21763 1225 ft 8 kts 244°
2026-04-30 20:36 49.63092 6.21681 1225 ft 8 kts 258°
2026-04-30 20:36 49.63174 6.21578 1229 ft 8 kts 332°
2026-04-30 20:37 49.63225 6.21534 1229 ft 7 kts 330°
2026-04-30 20:37 49.63268 6.21535 1229 ft 7 kts 353°
2026-04-30 20:37 49.63300 6.21514 1229 ft 0 kts 328°
2026-04-30 20:37 49.63301 6.21513 1229 ft 1 kts 331°
2026-04-30 20:38 49.63310 6.21507 1229 ft 1 kts 331°
2026-04-30 20:38 49.63312 6.21504 1229 ft 0 kts 331°